{"data":{"norad_id":47632,"intl_designator":"2021-012N","name":"STARLINK-1992","alt_names":[],"object_type":"PAYLOAD","status":"ACTIVE","operator":null,"country":"US","launch_date":"2021-02-16","launch_site_code":"AFETR","launch_vehicle":null,"mission":null,"orbit_class":"UNKNOWN","rcs_meters":null,"size_class":null,"mass_kg":null,"dimensions":null,"purposes":["comms"],"wikipedia_slug":null,"has_3d_model":false,"image_url":null,"decayed_at":null,"tle_current":{"epoch":"2026-05-24T22:02:03.496128Z","epoch_age_seconds":85358,"freshness":"FRESH","line1":"1 47632U 21012N   26144.91809602 -.00000948  00000+0 -18782-4 0  9992","line2":"2 47632  53.1614 338.1577 0000972  94.3917 265.7196 15.31718142293035","mean_motion":15.31718142,"eccentricity":9.72e-5,"inclination_deg":53.1614,"raan_deg":338.1577,"arg_perigee_deg":94.3917,"mean_anomaly_deg":265.7196,"bstar":-1.8782e-5,"rev_number":29303,"period_min":94.012074448616,"perigee_km":470.02020981409,"apogee_km":471.35162098884,"semimajor_km":6848.8229154015,"source":"CELESTRAK","updated_at":"2026-05-25T13:38:16.560777Z"}}}